[[{"header":{"parameterUnit":"m.s-1","parameterCategory":2,"la1":30.2991,"la2":30.254,"lo1":-89.0895,"lo2":-89.0444,"dy":0.0017,"dx":0.0017,"nx":28,"ny":28,"refTime":"2023-03-13T21:00:00:Z","depth":"0","parameterNumber":2,"parameterNumberName":"U-component_of_CURRENTS"},"data":[0,0,0,0,0,0,0,0,0,0,0,0,0,0,0,0,0,0,0,0,0,0,0,0,0,0,0,0,0,0,0,0,0,0,0,0,0,0,0,0,0,0,0,0,0,0,0,0,0,0,0,0,0,0,0,0,0,0,0.1724,0.1724,0,0.1706,0.1706,0.1706,0.1699,0.1699,0.1699,0.17,0.1679,0.1678,0.1677,0,0,0,0,0,0,0,0,0,0,0,0,0,0.1755,0.1755,0.1724,0.1724,0.1724,0.1706,0.1706,0.1706,0.1699,0.1699,0.1699,0.17,0.1679,0.1678,0.1677,0,0,0,0,0,0,0,0,0,0,0,0,0,0.1739,0.1754,0.1724,0.172,0.1719,0.1706,0.1706,0.1705,0.1699,0.1699,0.17,0.17,0.1679,0.1678,0.1677,0.1665,0,0,0.1674,0.1673,0,0,0,0,0,0,0,0,0.174,0.1737,0.172,0.172,0.1719,0.1706,0.1709,0.1692,0.1699,0.1705,0.17,0.17,0.1688,0.1687,0.1681,0.1664,0.1663,0.1674,0.1673,0.1673,0.1672,0,0,0,0,0,0,0,0.1741,0.1738,0.1716,0.172,0.172,0.1719,0.1717,0.1706,0.1694,0.1705,0.1704,0.1705,0.1688,0.1682,0.168,0.1663,0.1674,0.1673,0.1672,0.1672,0.1666,0.1666,0,0,0,0,0,0,0.1745,0.1739,0.1716,0.1715,0.1732,0.1719,0.1716,0.1709,0.1695,0.1693,0.1704,0.1704,0.1683,0.1681,0.1679,0.1691,0.1673,0.1672,0.1671,0.1665,0.1666,0.1667,0,0,0,0,0,0,0.1746,0.1743,0.1717,0.1728,0.1725,0.1718,0.171,0.1709,0.1706,0.1695,0.1693,0.1704,0.1684,0.1681,0.1675,0.1689,0.1671,0.167,0.1665,0.1666,0.1666,0.1697,0,0,0,0,0,0,0.1747,0.1743,0.174,0.1728,0.1725,0.1714,0.171,0.1708,0.1706,0.1706,0.1694,0.1692,0.1684,0.1677,0.1674,0.1687,0.1669,0.1664,0.1665,0.1666,0.1695,0.1699,0.1701,0,0,0,0,0,0.1748,0.1741,0.1739,0.1737,0.172,0.1714,0.1712,0.1707,0.1706,0.1706,0.1699,0.1692,0.1682,0.1676,0.1673,0.1686,0.1664,0.1665,0.1666,0.1694,0.1698,0.1701,0,0,0,0,0,0,0.1749,0.1739,0.1738,0.1727,0.1725,0.1714,0.1712,0.1709,0.1703,0.1702,0.1692,0.169,0.1694,0.1683,0.1678,0.1688,0.1674,0.1675,0.1696,0.17,0.1703,0.1702,0.1668,0,0,0,0,0,0.1749,0.1742,0.1736,0.1728,0.1727,0.1721,0.1718,0.1715,0.1708,0.1706,0.1697,0.1692,0.1695,0.1691,0.1688,0.1686,0.1689,0.1694,0.1698,0.17,0.1698,0.1729,0.1735,0.167,0.167,0.167,0,0,0.1746,0.1741,0.1736,0.1728,0.1725,0.1723,0.1719,0.1716,0.1717,0.1704,0.17,0.1701,0.1697,0.1702,0.1703,0.1694,0.1719,0.1702,0.1704,0.17,0.173,0.1737,0.1742,0.1671,0.1671,0.1671,0,0,0.1738,0.1734,0.1728,0.1728,0.1727,0.1725,0.1726,0.1719,0.172,0.1716,0.1716,0.1723,0.1713,0.1719,0.1721,0.1736,0.1737,0.1739,0.175,0.1781,0.1787,0.1792,0.1798,0.1804,0.1738,0.1738,0.1738,0,0.1737,0.1727,0.1726,0.1724,0.1726,0.1728,0.1727,0.1727,0.1719,0.1727,0.1718,0.173,0.1723,0.1744,0.1748,0.1744,0.1755,0.1737,0.1786,0.1791,0.1796,0.1801,0.1807,0.174,0.174,0.174,0.1739,0,0.1724,0.1722,0.172,0.1719,0.1723,0.1722,0.1728,0.1733,0.1735,0.1739,0.1758,0.1754,0.1764,0.1767,0.1758,0.1792,0.1786,0.179,0.1778,0.1804,0.1808,0.1813,0.1742,0.1742,0.1741,0.1741,0,0,0.1706,0.171,0.171,0.1713,0.1722,0.1721,0.1735,0.1749,0.1765,0.1765,0.1787,0.1792,0.18,0.1802,0.1804,0.1821,0.1856,0.1817,0.1818,0.1825,0.1913,0.1876,0.1878,0.1876,0.1877,0.1878,0.1901,0,0.1698,0.1694,0.1702,0.1705,0.1704,0.1723,0.1736,0.1752,0.177,0.1791,0.1806,0.1823,0.1813,0.1822,0.1842,0.1857,0.1873,0.1849,0.1884,0.1885,0.1851,0.1884,0.1787,0.1796,0.1906,0.1907,0.1908,0,0.1681,0.1684,0.1684,0.1701,0.1704,0.1711,0.1745,0.1758,0.1798,0.1815,0.1846,0.1856,0.1884,0.187,0.1913,0.1902,0.1906,0.1912,0.1914,0.1871,0.1858,0.1789,0.1802,0.1732,0.1916,0.1915,0.1914,0,0.1663,0.1671,0.1673,0.1677,0.1697,0.1709,0.1726,0.1765,0.1786,0.1835,0.1854,0.1896,0.1913,0.1939,0.1947,0.1938,0.199,0.1981,0.195,0.1947,0.1864,0.1852,0.1814,0.201,0.201,0.201,0.201,0,0.1646,0.1647,0.1665,0.1663,0.1676,0.1698,0.1724,0.1753,0.1799,0.1827,0.1864,0.1893,0.1933,0.1963,0.1969,0.1978,0.2013,0.1955,0.1957,0.1871,0.1859,0.1794,0.1738,0.2011,0.2011,0.2011,0.2011,0,0.162,0.163,0.1634,0.1656,0.1664,0.1675,0.1715,0.1735,0.1784,0.1823,0.1838,0.19,0.1942,0.1971,0.2014,0.1997,0.1939,0.2004,0.1887,0.1875,0.1765,0.1713,0.1643,0.1587,0.1969,0.1968,0.1968,0,0.1602,0.1602,0.1624,0.1629,0.1639,0.166,0.1674,0.1723,0.1746,0.1823,0.1835,0.1895,0.1927,0.1976,0.1973,0.1981,0.191,0.1877,0.1837,0.1748,0.1692,0.165,0.1605,0.1736,0.1734,0.1732,0.1731,0,0.1576,0.1588,0.1595,0.1605,0.1616,0.1628,0.1652,0.1667,0.1725,0.1758,0.1809,0.1845,0.1899,0.1867,0.1878,0.1873,0.1754,0.1836,0.1779,0.1533,0.1448,0.1398,0.1723,0.1713,0.1715,0.1716,0.1717,0.1718,0.156,0.156,0.1572,0.1576,0.1585,0.1583,0.1572,0.1602,0.1625,0.165,0.1735,0.1752,0.1748,0.1757,0.1732,0.1623,0.1645,0.1545,0.1498,0.1473,0.1385,0.1662,0.1635,0.1636,0.1637,0.1638,0.1639,0,0.153,0.1533,0.1539,0.1531,0.1514,0.1537,0.1541,0.1516,0.1508,0.1562,0.159,0.157,0.1522,0.1504,0.1391,0.1281,0.1257,0.1234,0.1142,0.1122,0.1398,0.1354,0.1221,0.1221,0.1221,0.1221,0.1221,0.1222,0.1515,0.1503,0.15,0.1457,0.1449,0.1396,0.1383,0.1358,0.1372,0.1345,0.1327,0.1332,0.1274,0.1146,0.0998,0.0991,0.089,0.0855,0.0869,0.1042,0.1068,0.1092,0.1041,0.0844,0.0843,0.0572,0.0569,0.0567]},{"header":{"parameterUnit":"m.s-1","parameterCategory":2,"la1":30.2991,"la2":30.254,"lo1":-89.0895,"lo2":-89.0444,"dy":0.0017,"dx":0.0017,"nx":28,"ny":28,"refTime":"2023-03-13T21:00:00:Z","depth":"0","parameterNumber":3,"parameterNumberName":"V-component_of_CURRENTS"},"data":[0,0,0,0,0,0,0,0,0,0,0,0,0,0,0,0,0,0,0,0,0,0,0,0,0,0,0,0,0,0,0,0,0,0,0,0,0,0,0,0,0,0,0,0,0,0,0,0,0,0,0,0,0,0,0,0,0,0,-0.0131,-0.0132,0,-0.0154,-0.0154,-0.0155,-0.0172,-0.0172,-0.0172,-0.0172,-0.0189,-0.019,-0.019,0,0,0,0,0,0,0,0,0,0,0,0,0,-0.0113,-0.0113,-0.0131,-0.0132,-0.0132,-0.0154,-0.0154,-0.0155,-0.0172,-0.0172,-0.0172,-0.0172,-0.0189,-0.019,-0.019,0,0,0,0,0,0,0,0,0,0,0,0,0,-0.0127,-0.0113,-0.0131,-0.0143,-0.0144,-0.0154,-0.0155,-0.0155,-0.0172,-0.0172,-0.0172,-0.0172,-0.0189,-0.019,-0.019,-0.0189,0,0,-0.0192,-0.0192,0,0,0,0,0,0,0,0,-0.0126,-0.0127,-0.0141,-0.0142,-0.0144,-0.016,-0.0154,-0.0166,-0.0172,-0.0162,-0.0172,-0.0173,-0.0179,-0.018,-0.0184,-0.019,-0.0191,-0.0192,-0.0192,-0.0192,-0.0192,0,0,0,0,0,0,0,-0.0125,-0.0127,-0.0141,-0.0141,-0.0143,-0.015,-0.0153,-0.0157,-0.0169,-0.0162,-0.0164,-0.0166,-0.018,-0.0184,-0.0185,-0.0191,-0.0192,-0.0192,-0.0192,-0.0193,-0.0183,-0.0182,0,0,0,0,0,0,-0.0121,-0.0126,-0.014,-0.0141,-0.0135,-0.0151,-0.0153,-0.0155,-0.0169,-0.0171,-0.0166,-0.0167,-0.0183,-0.0184,-0.0186,-0.0169,-0.0192,-0.0193,-0.0193,-0.0183,-0.0183,-0.0182,0,0,0,0,0,0,-0.012,-0.0122,-0.0139,-0.0134,-0.0137,-0.0151,-0.0153,-0.0155,-0.0158,-0.0171,-0.0174,-0.0165,-0.0183,-0.0185,-0.0181,-0.017,-0.0193,-0.0193,-0.0184,-0.0183,-0.0182,-0.0146,0,0,0,0,0,0,-0.012,-0.0122,-0.0121,-0.0134,-0.0137,-0.0138,-0.0152,-0.0155,-0.0159,-0.016,-0.0172,-0.0174,-0.0184,-0.018,-0.0182,-0.0171,-0.0194,-0.0185,-0.0184,-0.0183,-0.0148,-0.0144,-0.014,0,0,0,0,0,-0.0119,-0.0114,-0.012,-0.0122,-0.0135,-0.0138,-0.0139,-0.0151,-0.0158,-0.0155,-0.0161,-0.0173,-0.0175,-0.018,-0.0182,-0.0172,-0.0185,-0.0184,-0.0183,-0.0149,-0.0145,-0.0141,0,0,0,0,0,0,-0.0105,-0.0115,-0.0123,-0.0121,-0.0127,-0.014,-0.0137,-0.0147,-0.0151,-0.0151,-0.0166,-0.0168,-0.0161,-0.017,-0.0176,-0.0166,-0.0182,-0.0181,-0.0156,-0.0152,-0.0148,-0.0137,-0.0194,0,0,0,0,0,-0.0102,-0.0099,-0.0112,-0.0109,-0.0111,-0.0124,-0.0127,-0.0134,-0.014,-0.0142,-0.015,-0.0156,-0.0158,-0.0158,-0.0162,-0.0155,-0.0165,-0.015,-0.0146,-0.0143,-0.0135,-0.0139,-0.0135,-0.0178,-0.0178,-0.0178,0,0,-0.0096,-0.0101,-0.01,-0.0106,-0.0111,-0.0105,-0.0126,-0.0125,-0.0117,-0.0142,-0.0132,-0.0144,-0.0153,-0.0145,-0.0143,-0.0151,-0.0137,-0.0141,-0.0138,-0.0132,-0.0137,-0.0133,-0.0129,-0.0177,-0.0177,-0.0177,0,0,-0.0078,-0.0086,-0.0077,-0.0079,-0.0083,-0.0089,-0.0087,-0.0097,-0.0098,-0.0093,-0.0108,-0.0111,-0.0114,-0.0118,-0.0121,-0.0099,-0.0118,-0.0102,-0.0073,-0.0077,-0.0073,-0.007,-0.0082,-0.008,-0.0099,-0.0099,-0.0099,0,-0.007,-0.0062,-0.0074,-0.0065,-0.0061,-0.0079,-0.0065,-0.0068,-0.0075,-0.0068,-0.0083,-0.0086,-0.0099,-0.0087,-0.0082,-0.009,-0.0098,-0.0089,-0.0072,-0.0069,-0.0067,-0.0079,-0.0078,-0.0097,-0.0097,-0.0097,-0.0097,0,-0.0045,-0.0038,-0.0031,-0.0024,-0.0022,-0.0013,-0.0018,-0.0013,-0.0019,-0.0022,-0.0013,-0.0035,-0.0036,-0.0043,-0.0056,-0.0043,-0.0056,-0.0068,-0.0083,-0.006,-0.0075,-0.0074,-0.0094,-0.0095,-0.0095,-0.0096,0,0,-0.0024,-0.0015,-0.0011,0.0,0.0001,0.0009,0.0024,0.0037,0.0056,0.004,0.006,0.0045,0.0028,0.0024,0.0003,-0.0003,-0.0,-0.0025,-0.0026,-0.0035,-0.0012,-0.0031,-0.0033,-0.0009,-0.0008,-0.0008,-0.0031,0,0.0002,0.0029,0.0026,0.0057,0.0071,0.0064,0.0084,0.0092,0.0096,0.0111,0.0088,0.0094,0.0056,0.0053,0.0042,0.0015,0.0005,0.0007,-0.0033,-0.0034,-0.0053,-0.0031,-0.0041,-0.0063,-0.003,-0.003,-0.003,0,0.0031,0.0046,0.0078,0.0103,0.011,0.0126,0.0158,0.0173,0.0186,0.0188,0.0184,0.0162,0.0149,0.0111,0.0074,0.0078,0.0037,0.001,0.0008,-0.002,-0.0051,-0.0079,-0.0063,-0.0152,-0.0029,-0.0029,-0.0029,0,0.006,0.0085,0.0115,0.0122,0.0145,0.0164,0.0179,0.0201,0.0226,0.0236,0.0249,0.0226,0.0217,0.0169,0.01,0.009,0.0058,0.0034,-0.0022,-0.0024,-0.0045,-0.005,-0.0118,0.0008,0.0008,0.0009,0.0009,0,0.0092,0.0115,0.0132,0.0149,0.0195,0.0197,0.0249,0.0261,0.0288,0.0329,0.0289,0.0308,0.0232,0.0198,0.0128,0.0059,0.0076,-0.0009,-0.0026,-0.0034,-0.0037,-0.0126,-0.0166,0.0008,0.0008,0.0008,0.0008,0,0.012,0.0129,0.0165,0.0195,0.021,0.0244,0.0292,0.033,0.0344,0.0393,0.0394,0.0376,0.0329,0.0244,0.017,0.01,-0.0021,-0.0001,-0.0009,-0.0026,-0.0165,-0.0202,-0.0245,-0.0318,-0.0064,-0.0064,-0.0065,0,0.0139,0.016,0.0202,0.023,0.0246,0.0294,0.0332,0.0359,0.0402,0.0439,0.0467,0.0432,0.0423,0.03,0.0168,0.0045,-0.004,-0.0051,-0.0075,-0.0168,-0.0222,-0.0225,-0.0284,-0.0092,-0.0093,-0.0094,-0.0094,0,0.0176,0.019,0.022,0.0274,0.0317,0.0367,0.0421,0.0462,0.0501,0.0537,0.0576,0.0569,0.0451,0.033,0.0155,0.0059,-0.0115,-0.0066,-0.0156,-0.0241,-0.0252,-0.0332,-0.009,-0.0099,-0.0098,-0.0098,-0.0098,-0.0097,0.0208,0.0234,0.0272,0.0323,0.0372,0.043,0.047,0.0528,0.0592,0.0636,0.0646,0.063,0.0462,0.0224,0.0096,-0.0167,-0.0154,-0.0249,-0.0284,-0.0277,-0.0352,-0.0122,-0.0153,-0.0153,-0.0153,-0.0153,-0.0152,0,0.0243,0.0269,0.0318,0.0372,0.0418,0.044,0.052,0.0551,0.0617,0.0656,0.0679,0.0561,0.037,0.0142,-0.0175,-0.0346,-0.0414,-0.0451,-0.0469,-0.0522,-0.0315,-0.0323,-0.0398,-0.0398,-0.0398,-0.0398,-0.0398,-0.0398,0.0265,0.0307,0.0323,0.0394,0.0431,0.0482,0.0521,0.0571,0.0602,0.0603,0.0562,0.0509,0.027,-0.0102,-0.0453,-0.0544,-0.068,-0.0672,-0.0762,-0.063,-0.0614,-0.0599,-0.0618,-0.0754,-0.0754,-0.0959,-0.0961,-0.0962]}],[{"header":{"parameterUnit":"m.s-1","parameterCategory":2,"la1":30.2991,"la2":30.254,"lo1":-89.0895,"lo2":-89.0444,"dy":0.0017,"dx":0.0017,"nx":28,"ny":28,"refTime":"2023-03-13T21:00:00:Z","depth":"2","parameterNumber":2,"parameterNumberName":"U-component_of_CURRENTS"},"data":[0,0,0,0,0,0,0,0,0,0,0,0,0,0,0,0,0,0,0,0,0,0,0,0,0,0,0,0,0,0,0,0,0,0,0,0,0,0,0,0,0,0,0,0,0,0,0,0,0,0,0,0,0,0,0,0,0,0,0.1739,0.1739,0,0.1723,0.1723,0.1723,0.1718,0.1718,0.1718,0.1718,0.1699,0.1699,0.1698,0,0,0,0,0,0,0,0,0,0,0,0,0,0.1767,0.1767,0.1739,0.1739,0.1739,0.1723,0.1723,0.1723,0.1718,0.1718,0.1718,0.1718,0.1699,0.1699,0.1698,0,0,0,0,0,0,0,0,0,0,0,0,0,0.1752,0.1766,0.174,0.1736,0.1735,0.1723,0.1723,0.1723,0.1718,0.1718,0.1718,0.1719,0.17,0.1699,0.1698,0.1685,0,0,0.1694,0.1694,0,0,0,0,0,0,0,0,0.1753,0.1751,0.1737,0.1736,0.1736,0.1724,0.1726,0.171,0.1718,0.1723,0.1718,0.1719,0.1708,0.1706,0.1701,0.1684,0.1684,0.1694,0.1694,0.1693,0.1693,0,0,0,0,0,0,0,0.1754,0.1752,0.1732,0.1736,0.1736,0.1735,0.1734,0.1723,0.1713,0.1723,0.1723,0.1723,0.1707,0.1702,0.17,0.1683,0.1694,0.1694,0.1693,0.1692,0.1689,0.1689,0,0,0,0,0,0,0.1758,0.1753,0.1732,0.1731,0.1747,0.1735,0.1733,0.1726,0.1713,0.1712,0.1722,0.1723,0.1703,0.1701,0.17,0.1712,0.1693,0.1692,0.1692,0.1688,0.1689,0.1689,0,0,0,0,0,0,0.1759,0.1756,0.1733,0.1743,0.174,0.1734,0.1727,0.1726,0.1724,0.1713,0.1712,0.1723,0.1703,0.1701,0.1697,0.171,0.1692,0.1691,0.1688,0.1688,0.1689,0.1719,0,0,0,0,0,0,0.1759,0.1756,0.1754,0.1743,0.174,0.173,0.1727,0.1725,0.1724,0.1724,0.1713,0.1711,0.1703,0.1698,0.1696,0.1708,0.169,0.1687,0.1688,0.1689,0.1717,0.1721,0.1724,0,0,0,0,0,0.176,0.1754,0.1753,0.1751,0.1736,0.1731,0.1729,0.1725,0.1724,0.1724,0.1719,0.1712,0.1703,0.1697,0.1694,0.1707,0.1686,0.1688,0.1689,0.1716,0.172,0.1724,0,0,0,0,0,0,0.1762,0.1753,0.1752,0.1743,0.1741,0.1731,0.1729,0.1727,0.1721,0.1722,0.1712,0.171,0.1715,0.1704,0.1699,0.171,0.1696,0.1697,0.1718,0.1722,0.1725,0.1723,0.1689,0,0,0,0,0,0.1762,0.1756,0.175,0.1744,0.1743,0.1737,0.1735,0.1732,0.1727,0.1724,0.1717,0.1713,0.1716,0.1713,0.171,0.1709,0.1712,0.1717,0.172,0.1723,0.172,0.1751,0.1757,0.1693,0.1693,0.1693,0,0,0.1759,0.1755,0.1751,0.1744,0.1741,0.1739,0.1736,0.1733,0.1735,0.1723,0.172,0.1722,0.1719,0.1724,0.1725,0.1716,0.1741,0.1725,0.1727,0.1723,0.1753,0.1759,0.1765,0.1694,0.1694,0.1694,0,0,0.1752,0.175,0.1744,0.1744,0.1743,0.1742,0.1743,0.1736,0.1738,0.1735,0.1736,0.1744,0.1735,0.1742,0.1743,0.176,0.1759,0.1762,0.1773,0.1804,0.1809,0.1814,0.1821,0.1826,0.1761,0.1761,0.1761,0,0.1751,0.1743,0.1742,0.174,0.1743,0.1745,0.1744,0.1745,0.1738,0.1746,0.1738,0.1751,0.1745,0.1767,0.1771,0.1767,0.1778,0.176,0.1808,0.1813,0.1818,0.1824,0.1829,0.1763,0.1763,0.1763,0.1763,0,0.1739,0.1738,0.1736,0.1736,0.174,0.174,0.1745,0.1751,0.1754,0.1758,0.1779,0.1775,0.1787,0.179,0.1781,0.1815,0.1809,0.1812,0.18,0.1826,0.183,0.1835,0.1765,0.1765,0.1764,0.1764,0,0,0.1722,0.1727,0.1727,0.173,0.174,0.1739,0.1754,0.1768,0.1784,0.1786,0.1808,0.1814,0.1822,0.1824,0.1827,0.1844,0.1878,0.1839,0.184,0.1847,0.1934,0.1895,0.1897,0.1897,0.1899,0.19,0.1922,0,0.1715,0.1712,0.172,0.1723,0.1723,0.1741,0.1755,0.1772,0.179,0.1812,0.1827,0.1845,0.1835,0.1845,0.1864,0.1879,0.1894,0.1871,0.1906,0.1906,0.187,0.1903,0.1709,0.171,0.1927,0.1927,0.1928,0,0.1698,0.1701,0.1702,0.1721,0.1724,0.1731,0.1765,0.1779,0.1819,0.1836,0.1868,0.1879,0.1906,0.1892,0.1934,0.1923,0.1928,0.1933,0.1935,0.189,0.1877,0.172,0.1711,0.1937,0.1936,0.1935,0.1935,0,0.168,0.169,0.1692,0.1696,0.1717,0.173,0.1747,0.1787,0.1808,0.1857,0.1876,0.1918,0.1936,0.1961,0.1968,0.1959,0.201,0.2001,0.1968,0.1965,0.1801,0.1781,0.203,0.203,0.203,0.203,0.203,0,0.1664,0.1665,0.1684,0.1683,0.1697,0.1719,0.1746,0.1775,0.1822,0.185,0.1887,0.1916,0.1956,0.1985,0.1989,0.1996,0.2032,0.1973,0.1974,0.1805,0.1786,0.1982,0.1976,0.2031,0.203,0.203,0.203,0,0.1638,0.1649,0.1654,0.1677,0.1686,0.1697,0.1738,0.1758,0.1807,0.1847,0.1862,0.1924,0.1964,0.1992,0.2034,0.2016,0.2029,0.202,0.1808,0.1784,0.1954,0.195,0.1984,0.1983,0.1982,0.1982,0.1981,0,0.1622,0.1622,0.1645,0.1651,0.166,0.1683,0.1697,0.1747,0.177,0.1847,0.1859,0.1918,0.1945,0.199,0.196,0.1959,0.2021,0.179,0.1737,0.1955,0.1953,0.195,0.1946,0.1524,0.1519,0.1516,0.1513,0,0.1596,0.1608,0.1616,0.1627,0.1638,0.1651,0.1676,0.1691,0.175,0.1778,0.1828,0.1859,0.1886,0.1795,0.1793,0.1774,0.1775,0.1719,0.2007,0.1575,0.1525,0.1522,0.1533,0.1482,0.1485,0.1487,0.1489,0.149,0.158,0.1581,0.1593,0.1598,0.1608,0.1607,0.1596,0.1615,0.1633,0.1632,0.1725,0.1688,0.1683,0.158,0.1529,0.1481,0.1616,0.1529,0.1537,0.155,0.1503,0.1456,0.1388,0.1391,0.1393,0.1395,0.1397,0,0.1546,0.1553,0.156,0.1553,0.1531,0.156,0.1565,0.1526,0.1499,0.1503,0.1504,0.1362,0.1271,0.1282,0.114,0.1142,0.1114,0.1107,0.1036,0.1068,0.1096,0.1024,0.0783,0.0781,0.078,0.0778,0,0,0.153,0.1515,0.1513,0.1467,0.1464,0.1406,0.1392,0.1346,0.1319,0.1247,0.1184,0.1209,0.1241,0.0992,0.0951,0.0841,0.0957,0.0811,0.1301,0.1249,0.1275,0.1333,0.1259,0,0,0,0,0]},{"header":{"parameterUnit":"m.s-1","parameterCategory":2,"la1":30.2991,"la2":30.254,"lo1":-89.0895,"lo2":-89.0444,"dy":0.0017,"dx":0.0017,"nx":28,"ny":28,"refTime":"2023-03-13T21:00:00:Z","depth":"2","parameterNumber":3,"parameterNumberName":"V-component_of_CURRENTS"},"data":[0,0,0,0,0,0,0,0,0,0,0,0,0,0,0,0,0,0,0,0,0,0,0,0,0,0,0,0,0,0,0,0,0,0,0,0,0,0,0,0,0,0,0,0,0,0,0,0,0,0,0,0,0,0,0,0,0,0,-0.0052,-0.0052,0,-0.0074,-0.0074,-0.0075,-0.0092,-0.0092,-0.0093,-0.0093,-0.0109,-0.0109,-0.011,0,0,0,0,0,0,0,0,0,0,0,0,0,-0.0033,-0.0033,-0.0052,-0.0052,-0.0052,-0.0074,-0.0074,-0.0075,-0.0092,-0.0092,-0.0093,-0.0093,-0.0109,-0.0109,-0.011,0,0,0,0,0,0,0,0,0,0,0,0,0,-0.0047,-0.0033,-0.0052,-0.0063,-0.0065,-0.0074,-0.0074,-0.0075,-0.0092,-0.0092,-0.0093,-0.0093,-0.0109,-0.0109,-0.011,-0.0108,0,0,-0.0111,-0.0111,0,0,0,0,0,0,0,0,-0.0046,-0.0048,-0.0061,-0.0063,-0.0064,-0.0081,-0.0074,-0.0085,-0.0092,-0.0082,-0.0093,-0.0093,-0.0099,-0.01,-0.0104,-0.0108,-0.0109,-0.0111,-0.0111,-0.0111,-0.0112,0,0,0,0,0,0,0,-0.0045,-0.0047,-0.0061,-0.0062,-0.0063,-0.0071,-0.0073,-0.0076,-0.0089,-0.0083,-0.0084,-0.0086,-0.0099,-0.0103,-0.0104,-0.0109,-0.0111,-0.0111,-0.0112,-0.0112,-0.0104,-0.0103,0,0,0,0,0,0,-0.0041,-0.0046,-0.006,-0.0061,-0.0055,-0.0071,-0.0073,-0.0075,-0.0089,-0.0091,-0.0086,-0.0087,-0.0103,-0.0104,-0.0105,-0.0091,-0.0111,-0.0112,-0.0112,-0.0104,-0.0104,-0.0103,0,0,0,0,0,0,-0.0041,-0.0042,-0.0059,-0.0054,-0.0057,-0.0071,-0.0073,-0.0075,-0.0079,-0.0091,-0.0094,-0.0087,-0.0103,-0.0104,-0.0102,-0.0092,-0.0112,-0.0112,-0.0105,-0.0104,-0.0103,-0.0071,0,0,0,0,0,0,-0.004,-0.0042,-0.0042,-0.0054,-0.0057,-0.0059,-0.0073,-0.0076,-0.008,-0.0081,-0.0093,-0.0095,-0.0103,-0.0101,-0.0102,-0.0093,-0.0113,-0.0105,-0.0104,-0.0104,-0.0072,-0.0069,-0.0066,0,0,0,0,0,-0.0039,-0.0035,-0.0042,-0.0043,-0.0056,-0.0059,-0.0061,-0.0072,-0.008,-0.0077,-0.0084,-0.0094,-0.0096,-0.0101,-0.0102,-0.0093,-0.0106,-0.0105,-0.0104,-0.0074,-0.007,-0.0066,0,0,0,0,0,0,-0.0028,-0.0037,-0.0044,-0.0044,-0.0049,-0.0062,-0.006,-0.0069,-0.0073,-0.0074,-0.0088,-0.0089,-0.0084,-0.0092,-0.0097,-0.0088,-0.0103,-0.0102,-0.008,-0.0076,-0.0073,-0.0062,-0.0113,0,0,0,0,0,-0.0025,-0.0023,-0.0035,-0.0033,-0.0035,-0.0048,-0.0051,-0.0058,-0.0063,-0.0066,-0.0074,-0.008,-0.0081,-0.0081,-0.0085,-0.0079,-0.0089,-0.0074,-0.0071,-0.0069,-0.0061,-0.0066,-0.0062,-0.01,-0.01,-0.01,0,0,-0.0021,-0.0025,-0.0025,-0.0031,-0.0036,-0.003,-0.005,-0.005,-0.0043,-0.0066,-0.0058,-0.0069,-0.0077,-0.007,-0.0069,-0.0076,-0.0064,-0.0067,-0.0065,-0.0058,-0.0064,-0.0061,-0.0057,-0.0099,-0.0099,-0.0099,0,0,-0.0006,-0.0014,-0.0005,-0.0007,-0.0012,-0.0017,-0.0016,-0.0025,-0.0027,-0.0022,-0.0036,-0.004,-0.0043,-0.0047,-0.0049,-0.003,-0.0048,-0.0033,-0.0006,-0.0011,-0.0008,-0.0006,-0.0018,-0.0017,-0.003,-0.003,-0.003,0,0.0,0.0008,-0.0003,0.0005,0.0009,-0.0008,0.0004,0.0002,-0.0005,0.0001,-0.0014,-0.0017,-0.003,-0.0018,-0.0014,-0.0022,-0.003,-0.002,-0.0007,-0.0005,-0.0003,-0.0016,-0.0015,-0.0028,-0.0029,-0.0029,-0.0029,0,0.0023,0.0029,0.0035,0.0042,0.0044,0.0052,0.0048,0.0051,0.0045,0.0043,0.005,0.0029,0.0028,0.0021,0.0009,0.002,0.0007,-0.0004,-0.0016,0.0003,-0.0013,-0.0012,-0.0026,-0.0027,-0.0027,-0.0027,0,0,0.004,0.0049,0.0052,0.0064,0.0064,0.0072,0.0086,0.0098,0.0117,0.01,0.0119,0.0104,0.0087,0.0084,0.0063,0.0057,0.0056,0.0036,0.0035,0.0024,0.0041,0.0023,0.0021,0.0048,0.0049,0.0049,0.0022,0,0.0063,0.0088,0.0086,0.0115,0.0129,0.0123,0.0142,0.015,0.0153,0.0167,0.0144,0.015,0.0113,0.011,0.0098,0.0071,0.006,0.0064,0.0024,0.0022,0.0004,0.0022,0.0053,0.0032,0.0023,0.0023,0.0023,0,0.0089,0.0103,0.0134,0.0159,0.0166,0.0181,0.0212,0.0226,0.0239,0.0241,0.0236,0.0214,0.02,0.0164,0.0125,0.013,0.009,0.0063,0.0061,0.0034,0.0005,0.0012,0.0033,0.0023,0.0023,0.0023,0.0023,0,0.0115,0.014,0.0168,0.0175,0.0198,0.0216,0.0231,0.0252,0.0277,0.0286,0.0298,0.0275,0.0265,0.0216,0.0148,0.0139,0.0105,0.0083,0.0026,0.0024,0.0039,0.0037,0.0055,0.0055,0.0055,0.0055,0.0055,0,0.0144,0.0166,0.0184,0.02,0.0244,0.0248,0.0298,0.031,0.0335,0.0375,0.0336,0.0354,0.0279,0.0244,0.0174,0.0105,0.0121,0.0037,0.002,0.005,0.005,0.0033,0.0031,0.0054,0.0054,0.0054,0.0055,0,0.017,0.0179,0.0214,0.0244,0.0258,0.0291,0.0339,0.0376,0.0389,0.0437,0.0438,0.0419,0.0372,0.0287,0.0213,0.0143,0.0074,0.0041,0.0076,0.0063,-0.0013,-0.0013,-0.0021,-0.0022,-0.0023,-0.0023,-0.0024,0,0.0187,0.0208,0.0249,0.0276,0.0293,0.0339,0.0377,0.0404,0.0446,0.0481,0.0508,0.0472,0.0462,0.0338,0.0216,0.0094,0.0068,0.0032,0.0016,-0.0003,-0.0018,-0.0017,-0.0017,0.0046,0.0046,0.0047,0.0047,0,0.0222,0.0235,0.0265,0.0318,0.036,0.041,0.0463,0.0503,0.0542,0.0576,0.0613,0.0605,0.0493,0.0388,0.0216,0.0135,0.0053,0.0029,0.0016,0.0057,0.0058,0.0043,0.0043,0.0048,0.0048,0.0048,0.0047,0.0047,0.0251,0.0277,0.0315,0.0364,0.0413,0.0471,0.051,0.0571,0.0634,0.0679,0.068,0.0663,0.0555,0.0334,0.0208,0.006,0.0054,0.0002,0.0004,0.0004,0.0013,0.0013,-0.0005,-0.0005,-0.0006,-0.0006,-0.0006,0,0.0289,0.031,0.0359,0.0412,0.0463,0.0481,0.0559,0.0602,0.0671,0.0707,0.0726,0.0624,0.0515,0.0372,0.0165,0.0043,0.0042,-0.0001,0.0033,0.0034,0.0033,0.0045,0.0034,0.0034,0.0034,0.0033,0,0,0.031,0.0354,0.0371,0.0444,0.0477,0.0541,0.058,0.0644,0.0684,0.0717,0.0702,0.0681,0.0538,0.0395,0.0248,0.0136,0.0104,0.0111,0.0094,0.0152,0.0153,0.0053,0.0072,0,0,0,0,0]}],[{"header":{"parameterUnit":"m.s-1","parameterCategory":2,"la1":30.2991,"la2":30.254,"lo1":-89.0895,"lo2":-89.0444,"dy":0.0017,"dx":0.0017,"nx":28,"ny":28,"refTime":"2023-03-13T21:00:00:Z","depth":"4","parameterNumber":2,"parameterNumberName":"U-component_of_CURRENTS"},"data":[0,0,0,0,0,0,0,0,0,0,0,0,0,0,0,0,0,0,0,0,0,0,0,0,0,0,0,0,0,0,0,0,0,0,0,0,0,0,0,0,0,0,0,0,0,0,0,0,0,0,0,0,0,0,0,0,0,0,0.1006,0.1007,0,0.1025,0.1025,0.1025,0.1047,0.1048,0.1048,0.1049,0.1077,0.1077,0.1077,0,0,0,0,0,0,0,0,0,0,0,0,0,0.1001,0.1001,0.1006,0.1007,0.1007,0.1025,0.1025,0.1025,0.1047,0.1048,0.1049,0.1049,0.1076,0.1077,0.1077,0,0,0,0,0,0,0,0,0,0,0,0,0,0.1008,0.1001,0.1006,0.1021,0.1023,0.1025,0.1025,0.1025,0.1047,0.1048,0.1049,0.1049,0.1076,0.1077,0.1077,0.1065,0,0,0.1079,0.1079,0,0,0,0,0,0,0,0,0.1008,0.1008,0.1019,0.102,0.1022,0.1036,0.1034,0.104,0.1047,0.1036,0.1049,0.105,0.1064,0.1066,0.1065,0.1067,0.1068,0.1079,0.1079,0.1079,0.1079,0,0,0,0,0,0,0,0.1007,0.1008,0.1012,0.1019,0.1021,0.1031,0.1033,0.1035,0.1045,0.1037,0.1039,0.1044,0.1065,0.1065,0.1066,0.1068,0.1079,0.1079,0.1079,0.1079,0.1134,0.1135,0,0,0,0,0,0,0.1007,0.1007,0.1012,0.1013,0.1019,0.1031,0.1033,0.103,0.1045,0.1048,0.1043,0.1045,0.1064,0.1066,0.1067,0.1122,0.1079,0.1079,0.108,0.1132,0.1134,0.1135,0,0,0,0,0,0,0.1006,0.1007,0.1011,0.1012,0.1014,0.103,0.1027,0.103,0.1056,0.1049,0.1053,0.107,0.1064,0.1067,0.1094,0.112,0.108,0.108,0.1131,0.1133,0.1135,0.1187,0,0,0,0,0,0,0.1006,0.1006,0.1017,0.1012,0.1014,0.1031,0.1026,0.103,0.1057,0.106,0.1073,0.1075,0.1065,0.1093,0.1094,0.112,0.108,0.113,0.1132,0.1134,0.1184,0.1191,0.1196,0,0,0,0,0,0.1006,0.1014,0.1017,0.1019,0.1024,0.1032,0.1035,0.1048,0.1058,0.1074,0.1085,0.1076,0.1108,0.1094,0.1095,0.1122,0.1129,0.1131,0.1134,0.1181,0.1189,0.1196,0,0,0,0,0,0,0.1016,0.1016,0.1021,0.1029,0.104,0.1037,0.1057,0.1064,0.1084,0.1096,0.1088,0.1091,0.1126,0.1117,0.1102,0.1145,0.1118,0.1121,0.1154,0.1161,0.1167,0.1164,0.1081,0,0,0,0,0,0.1023,0.1033,0.1033,0.1045,0.1053,0.106,0.1072,0.108,0.1091,0.1102,0.1111,0.1121,0.1132,0.1142,0.1149,0.117,0.1164,0.1189,0.1195,0.12,0.1199,0.1221,0.1229,0.1144,0.1144,0.1144,0,0,0.1031,0.1034,0.1041,0.1049,0.106,0.1072,0.107,0.1095,0.1111,0.1101,0.1137,0.1147,0.1144,0.117,0.1185,0.1169,0.1222,0.1204,0.1208,0.1204,0.1225,0.1233,0.124,0.1146,0.1145,0.1145,0,0,0.1046,0.1056,0.1069,0.108,0.1101,0.1103,0.1117,0.1131,0.1148,0.1177,0.1177,0.1203,0.122,0.1222,0.1223,0.1266,0.1256,0.1277,0.1303,0.1325,0.1332,0.1338,0.1341,0.1347,0.1277,0.1277,0.1277,0,0.106,0.1068,0.1077,0.1091,0.1105,0.112,0.1137,0.1151,0.1175,0.1192,0.1199,0.1238,0.124,0.1264,0.1281,0.128,0.1287,0.1275,0.1333,0.1339,0.1344,0.1345,0.1351,0.128,0.128,0.1279,0.1279,0,0.1074,0.1092,0.1103,0.1123,0.114,0.1161,0.1175,0.1204,0.1229,0.1241,0.1287,0.1294,0.1317,0.1325,0.1316,0.1357,0.1347,0.1341,0.1313,0.1356,0.1354,0.1359,0.1284,0.1283,0.1282,0.1281,0,0,0.1073,0.1106,0.1114,0.1128,0.116,0.117,0.1206,0.1234,0.1261,0.1297,0.1331,0.1359,0.1376,0.1378,0.138,0.1396,0.1439,0.139,0.1389,0.1389,0.1483,0.1377,0.1371,0.1451,0.1453,0.1454,0.1466,0,0.1085,0.1112,0.1129,0.1161,0.1174,0.1203,0.123,0.1263,0.1296,0.1333,0.1358,0.1393,0.1392,0.1414,0.1434,0.144,0.1456,0.1435,0.1443,0.1443,0.1341,0.1375,0.1458,0.147,0.1471,0.1472,0.1473,0,0.1087,0.1106,0.1139,0.1174,0.1185,0.1212,0.1261,0.1289,0.1341,0.137,0.1416,0.1435,0.1473,0.1465,0.1503,0.1495,0.1496,0.1494,0.1495,0.1377,0.1345,0.1419,0.1481,0.1481,0.148,0.1479,0.1479,0,0.1067,0.111,0.1137,0.1151,0.1195,0.1226,0.1257,0.1309,0.1338,0.1403,0.1432,0.148,0.1509,0.153,0.1534,0.1531,0.1561,0.1553,0.1454,0.1446,0.1515,0.1508,0.1577,0.1577,0.1577,0.1577,0.1577,0,0.1054,0.1079,0.1136,0.1149,0.1187,0.1225,0.1275,0.1312,0.137,0.14,0.1457,0.148,0.1532,0.1551,0.1551,0.1512,0.1579,0.1458,0.1444,0.1536,0.1532,0.1518,0.1511,0.1577,0.1577,0.1577,0.1577,0,0.1023,0.1061,0.1095,0.1155,0.1178,0.1209,0.128,0.1306,0.1373,0.1414,0.1439,0.1498,0.1521,0.1546,0.1569,0.1518,0.15,0.1469,0.1559,0.1551,0.1365,0.1361,0.1358,0.1355,0.1352,0.1349,0.1347,0,0.1005,0.1022,0.1094,0.1117,0.1151,0.1204,0.1233,0.1303,0.1325,0.1408,0.1412,0.1466,0.1493,0.1435,0.1475,0.1457,0.1438,0.1413,0.1391,0.1357,0.1345,0.1345,0.1345,0.1342,0.1341,0.134,0.134,0,0.0972,0.1013,0.1041,0.1085,0.1125,0.1157,0.1205,0.1213,0.1283,0.1354,0.1348,0.1349,0.1364,0.1368,0.1359,0.1348,0.1421,0.138,0.1386,0.1366,0.1337,0.1328,0.1332,0.1329,0.1331,0.1332,0.1332,0,0.0955,0.0966,0.101,0.1038,0.1083,0.1089,0.1124,0.1138,0.1166,0.1247,0.1244,0.1295,0.1353,0.1312,0.1308,0.1283,0.1261,0.1209,0.1224,0.1236,0.1188,0.1133,0.1049,0,0,0,0,0,0.0927,0.0926,0.0952,0.0971,0.1011,0.1034,0.1089,0.1122,0.1188,0.1149,0.119,0.1196,0.1182,0.121,0.1158,0.1258,0.1273,0.1191,0.1222,0.127,0.1282,0.1236,0,0,0,0,0,0,0.0905,0.0931,0.0929,0.0907,0.0908,0.0936,0.097,0.1017,0.0996,0.1069,0.1069,0.1117,0.1126,0.1199,0.1134,0.1141,0.1132,0.1223,0.122,0.1263,0.1274,0.1284,0.124,0,0,0,0,0]},{"header":{"parameterUnit":"m.s-1","parameterCategory":2,"la1":30.2991,"la2":30.254,"lo1":-89.0895,"lo2":-89.0444,"dy":0.0017,"dx":0.0017,"nx":28,"ny":28,"refTime":"2023-03-13T21:00:00:Z","depth":"4","parameterNumber":3,"parameterNumberName":"V-component_of_CURRENTS"},"data":[0,0,0,0,0,0,0,0,0,0,0,0,0,0,0,0,0,0,0,0,0,0,0,0,0,0,0,0,0,0,0,0,0,0,0,0,0,0,0,0,0,0,0,0,0,0,0,0,0,0,0,0,0,0,0,0,0,0,0.0236,0.0236,0,0.0228,0.0228,0.0228,0.0237,0.0237,0.0238,0.0238,0.0249,0.0249,0.0249,0,0,0,0,0,0,0,0,0,0,0,0,0,0.0233,0.0233,0.0236,0.0236,0.0236,0.0228,0.0228,0.0228,0.0237,0.0237,0.0238,0.0238,0.0249,0.0249,0.0249,0,0,0,0,0,0,0,0,0,0,0,0,0,0.0231,0.0233,0.0236,0.0239,0.0239,0.0228,0.0228,0.0228,0.0237,0.0237,0.0238,0.0238,0.0249,0.0249,0.0249,0.024,0,0,0.0249,0.0249,0,0,0,0,0,0,0,0,0.0231,0.0231,0.0239,0.0239,0.0239,0.0234,0.0231,0.0233,0.0237,0.0238,0.0238,0.0238,0.0245,0.0245,0.0243,0.0241,0.0241,0.0249,0.0249,0.0249,0.0249,0,0,0,0,0,0,0,0.0231,0.0231,0.0234,0.0239,0.0239,0.0231,0.0232,0.0231,0.024,0.0238,0.0239,0.0237,0.0245,0.0243,0.0244,0.0241,0.0249,0.0249,0.0249,0.0249,0.0236,0.0235,0,0,0,0,0,0,0.0232,0.0232,0.0234,0.0233,0.0236,0.0231,0.0232,0.0235,0.024,0.024,0.0237,0.0237,0.0243,0.0244,0.0244,0.0243,0.0249,0.0249,0.0249,0.0236,0.0236,0.0235,0,0,0,0,0,0,0.0232,0.0233,0.0234,0.0231,0.0231,0.0231,0.0235,0.0235,0.0236,0.0238,0.0239,0.0237,0.0243,0.0244,0.0246,0.0243,0.0249,0.0249,0.0237,0.0236,0.0236,0.0235,0,0,0,0,0,0,0.0232,0.0233,0.0236,0.0232,0.0231,0.0228,0.0234,0.0234,0.0233,0.0235,0.0239,0.024,0.0244,0.0246,0.0246,0.0244,0.0249,0.0237,0.0236,0.0236,0.0236,0.0235,0.0234,0,0,0,0,0,0.0232,0.0233,0.0237,0.0237,0.0236,0.0228,0.0227,0.0228,0.0233,0.0231,0.0236,0.024,0.0241,0.0246,0.0246,0.0243,0.0237,0.0237,0.0236,0.0236,0.0235,0.0234,0,0,0,0,0,0,0.0233,0.0234,0.0238,0.024,0.0235,0.0229,0.0228,0.0228,0.023,0.0233,0.0238,0.0239,0.0239,0.0239,0.0244,0.0236,0.0239,0.0238,0.0239,0.0238,0.0237,0.0243,0.0249,0,0,0,0,0,0.0235,0.0238,0.0234,0.0236,0.0234,0.0231,0.0229,0.0229,0.0228,0.023,0.0232,0.0234,0.0234,0.0235,0.0235,0.0231,0.0224,0.0228,0.0228,0.0227,0.0231,0.0215,0.0214,0.0233,0.0233,0.0233,0,0,0.0236,0.0237,0.0238,0.0236,0.0234,0.0232,0.0231,0.0227,0.0228,0.023,0.0234,0.0231,0.0232,0.023,0.0229,0.0231,0.0215,0.0226,0.0225,0.023,0.0214,0.0213,0.0211,0.0232,0.0232,0.0232,0,0,0.0234,0.024,0.024,0.0237,0.0233,0.0231,0.023,0.0225,0.0227,0.0225,0.0228,0.0224,0.0224,0.0223,0.0223,0.0215,0.0211,0.0214,0.0216,0.02,0.0199,0.0197,0.0176,0.0173,0.0214,0.0214,0.0214,0,0.0234,0.0239,0.0237,0.0235,0.0237,0.0232,0.0233,0.023,0.0226,0.0231,0.0228,0.0224,0.0221,0.0221,0.0218,0.0214,0.0204,0.0222,0.02,0.0198,0.0197,0.0176,0.0172,0.0213,0.0213,0.0213,0.0213,0,0.0231,0.0237,0.0236,0.0238,0.0236,0.0236,0.0233,0.0234,0.0235,0.0234,0.0232,0.0222,0.0223,0.0215,0.0216,0.0205,0.02,0.02,0.0204,0.0195,0.0173,0.0169,0.0213,0.0213,0.0213,0.0213,0,0,0.023,0.0234,0.0236,0.0243,0.0241,0.0242,0.0244,0.0247,0.0257,0.0243,0.0249,0.0236,0.0231,0.023,0.0222,0.0205,0.0179,0.02,0.0199,0.0182,0.0141,0.0135,0.0131,0.0178,0.0177,0.0177,0.0126,0,0.0232,0.0237,0.0237,0.0247,0.0252,0.0254,0.026,0.0263,0.0264,0.0266,0.025,0.0252,0.0237,0.0237,0.0216,0.0195,0.0171,0.0193,0.015,0.0148,0.0147,0.0127,0.0175,0.0123,0.0123,0.0122,0.0121,0,0.0232,0.0238,0.0249,0.0266,0.0269,0.0275,0.0295,0.0299,0.0299,0.03,0.0291,0.028,0.0258,0.0243,0.0193,0.0209,0.0174,0.015,0.0147,0.0142,0.0137,0.0136,0.0115,0.0115,0.0116,0.0116,0.0117,0,0.0241,0.025,0.0265,0.0269,0.0281,0.0294,0.0304,0.0313,0.0326,0.0323,0.0328,0.0299,0.0289,0.0241,0.019,0.0192,0.0129,0.0127,0.0084,0.0083,0.0105,0.0107,0.0083,0.0083,0.0083,0.0083,0.0083,0,0.0246,0.0259,0.0274,0.0282,0.0309,0.0312,0.0341,0.0347,0.0357,0.0374,0.0349,0.0348,0.0289,0.0247,0.0193,0.0128,0.013,0.008,0.007,0.0104,0.0106,0.0101,0.0104,0.0081,0.0081,0.0082,0.0082,0,0.0253,0.0261,0.0282,0.0303,0.0314,0.0335,0.0368,0.0387,0.0394,0.0412,0.0412,0.0383,0.0333,0.0265,0.0188,0.0139,0.0074,0.0048,0.0084,0.0077,0.0034,0.0038,-0.0006,-0.0007,-0.0007,-0.0007,-0.0008,0,0.0255,0.0267,0.03,0.0319,0.0332,0.0364,0.0388,0.0406,0.0426,0.0434,0.0441,0.0401,0.0372,0.0257,0.0185,0.0075,0.0059,0.0018,0.0026,0.0031,0.0025,0.0029,0.0033,-0.0009,-0.0009,-0.0009,-0.0009,0,0.0262,0.0278,0.0296,0.0337,0.0368,0.04,0.0434,0.045,0.047,0.0475,0.0464,0.0407,0.0348,0.026,0.0174,0.0096,0.0042,0.0012,0.0013,0.002,0.0027,0.0023,0.0027,-0.0011,-0.0011,-0.001,-0.001,0,0.0271,0.0288,0.0318,0.0354,0.0392,0.0426,0.0442,0.0463,0.0481,0.0487,0.0482,0.0419,0.0385,0.027,0.0192,0.0114,0.0094,0.0062,0.0059,0.006,0.0096,0.0116,0.0092,0,0,0,0,0,0.028,0.0301,0.0333,0.0371,0.0408,0.0434,0.0469,0.0482,0.05,0.0494,0.0489,0.0434,0.0324,0.0279,0.02,0.0177,0.0076,0.0081,0.0037,-0.0021,-0.0019,0.0011,0,0,0,0,0,0,0.0286,0.0317,0.0333,0.038,0.0409,0.0452,0.0476,0.0487,0.0484,0.0489,0.0433,0.0409,0.0304,0.0371,0.0198,0.0175,0.0134,0.0033,0.0031,-0.0022,-0.002,-0.0018,0.0013,0,0,0,0,0]}]]